Location: Unspecified
(0.0000°N, 0.0000°E)
Time: 04:02:43
(UTC+00:00)

Tiangong 1 - Pass Details

Date: 23 May 2017
Orbit: 304 x 329 km, 42.8° (Epoch: 19 September)

Event Time Altitude Azimuth Distance (km) Brightness Sun altitude
Rises 18:51:39 0° 317° (NW) 2,203 6.1 -12.8°
Reaches altitude 10° 18:53:44 10° 319° (NW) 1,338 4.8 -13.3°
Maximum altitude 18:56:44 76° 44° (NE) 364 0.8 -14.0°
Enters shadow 18:57:55 32° 126° (SE) 618 1.5 -14.3°
